"TOA5","AWS1","CR1000","7964","CR1000.Std.14","CPU:AWS1_114.CR1","64363","TBL110"
"TIMESTAMP","RECORD","Wind_spd_WVc(1)","Wind_spd_WVc(2)","Air_Temp_Avg","Humidity_Avg","SW_upper_Wm2_Avg","Rain_Tot","Press_Avg","Issui_Tot","Depth_cm","SR50A_Raw","Quality","Ground_Temp_Avg(1)","Ground_Temp_Avg(2)","SW_lower_Wm2_Avg","Albedo_Avg","SWC_per(1)","SWC_per(2)","Period(1)","Period(2)"
"TS","RN","","","","","","","","","","","","","","","","","","",""
"","","WVc","WVc","Avg","Avg","Avg","Tot","Avg","Tot","Smp","Smp","Smp","Avg","Avg","Avg","Avg","Smp","Smp","Smp","Smp"
"2018-07-22 00:00:00",350413,0.646,47.86,20.59,86.8,0,0,868.4197,0,12.82,2.943,239,23.19,22.07,0.2691486,0,39.04,48.65,30.44,32.96
"2018-07-22 00:10:00",350414,0.593,35.41,20.58,86.7,0,0,868.4113,0,12.7,2.945,266,23.11,22.07,0.1743761,0,39.04,48.65,30.44,32.96
"2018-07-22 00:20:00",350415,0.552,2.603,20.52,86.6,0,0,868.2343,0,13.09,2.94,303,23.07,22.07,0.2729382,0,39.04,48.65,30.44,32.96
"2018-07-22 00:30:00",350416,0.519,43.09,20.65,85.4,0,0,868.2933,0,12.45,2.947,232,23.08,22.07,0.3563373,0,39.09,48.65,30.45,32.96
"2018-07-22 00:40:00",350417,0.511,29.44,20.56,85.9,0,0,868.1922,0,11.98,2.952,258,23.11,22.07,0.2160775,0,39.04,48.59,30.44,32.95
"2018-07-22 00:50:00",350418,0.208,67.85,20.13,88.2,0,0,868.1522,0,11.29,2.963,237,23.04,22.08,0.06065337,0,39.09,48.65,30.45,32.96
"2018-07-22 01:00:00",350419,0.053,177.4,19.25,95.9,0,0,867.95,0,10.74,2.971,235,23.03,22.1,0,0,39.09,48.65,30.45,32.96
"2018-07-22 01:10:00",350420,0.196,178.5,18.91,100,0,0,867.9121,0,11.99,2.96,275,23.02,22.07,0,0,39.09,48.65,30.45,32.96
"2018-07-22 01:20:00",350421,0,0,18.84,100,0,0,867.9121,0,8.63,2.991,237,22.93,22.04,0.04928087,0,39.09,48.65,30.45,32.96
"2018-07-22 01:30:00",350422,0,0,18.98,100,0,0,868.0174,0,-28.95,3.355,201,22.94,22.05,0.2274502,0,39.09,48.65,30.45,32.96
"2018-07-22 01:40:00",350423,0.108,195.4,18.78,100,0,0,867.9457,0,8.47,2.995,233,22.94,22.05,0.2274502,0,39.09,48.65,30.45,32.96
"2018-07-22 01:50:00",350424,0.267,195.1,18.5,100,0,0,867.9121,0,9.9,2.982,343,22.86,22.07,0.2274502,0,39.04,48.65,30.44,32.96
"2018-07-22 02:00:00",350425,0,0,18.61,100,0,0,867.9121,0,7.799,3.001,230,22.83,22.06,0.462482,0,39.09,48.59,30.45,32.95
"2018-07-22 02:10:00",350426,0.226,46.03,18.98,100,0,0,867.9121,0,8.86,2.987,249,22.82,22.01,0.9514999,0,39.09,48.65,30.45,32.96
"2018-07-22 02:20:00",350427,0.638,39.44,19.77,94,0,0,867.9121,0,8.38,2.99,316,22.75,22.02,1.652805,0,39.09,48.65,30.45,32.96
"2018-07-22 02:30:00",350428,0.686,51.09,19.7,93.2,0,0,867.9121,0,-28.89,3.35,226,22.77,22.01,0.9552907,0,39.09,48.65,30.45,32.96
"2018-07-22 02:40:00",350429,0.518,35.32,19.88,91.6,0,0,867.9121,0,-32.39,3.383,207,22.75,22,0.8264024,0,39.14,48.65,30.46,32.96
"2018-07-22 02:50:00",350430,0.21,54.12,19.64,92.8,0,0,867.8173,0,14.18,2.938,281,22.65,21.98,0.2843122,0,39.09,48.65,30.45,32.96
"2018-07-22 03:00:00",350431,0,0,18.64,99.9,0,0,867.8383,0,14.2,2.94,253,22.68,21.98,0,0,39.09,48.65,30.45,32.96
"2018-07-22 03:10:00",350432,0.084,161.2,18.45,100,0,0,867.7962,0,15.09,2.932,277,22.66,21.98,0,0,39.09,48.65,30.45,32.96
"2018-07-22 03:20:00",350433,0.037,163.8,18.45,100,0,0,867.9016,0,15.26,2.929,266,22.59,22.03,0.1061433,0,39.14,48.65,30.46,32.96
"2018-07-22 03:30:00",350434,0.103,168.6,18.52,100,0,0,867.9121,0,14.78,2.935,276,22.6,22.06,0.2274501,0,39.09,48.65,30.45,32.96
"2018-07-22 03:40:00",350435,0.253,184.4,18.24,100,0,0,867.9121,0,16.54,2.919,344,22.52,22.07,0.2274502,0,39.09,48.65,30.45,32.96
"2018-07-22 03:50:00",350436,0.279,185.7,18.15,100,0,0,867.91,0,-31.27,3.382,195,22.48,22.07,0.2274502,0,39.09,48.65,30.45,32.96
"2018-07-22 04:00:00",350437,0.469,185.9,18.14,100,0,0,867.9121,0,-22.7,3.299,193,22.5,22.04,0.2691494,0,39.09,48.65,30.45,32.96
"2018-07-22 04:10:00",350438,0.48,185.7,18.06,100,0,0,867.9121,0,5.588,3.026,239,22.43,22.01,0.2426135,0,39.09,48.65,30.45,32.96
"2018-07-22 04:20:00",350439,0.429,192.2,17.99,100,0,0,867.9121,0,-30.65,3.377,254,22.42,21.96,0.2426135,0,39.09,48.65,30.45,32.96
"2018-07-22 04:30:00",350440,0.225,191.5,18.11,100,0,0,867.9163,0,5.185,3.029,240,22.43,21.93,0.5079721,0,39.14,48.65,30.46,32.96
"2018-07-22 04:40:00",350441,0,0,18.4,100,0,0,868.0721,0,4.942,3.03,258,22.39,21.9,0.9022191,0,39.14,48.65,30.46,32.96
"2018-07-22 04:50:00",350442,0.395,190.4,18.05,100,0.01179488,0,868.1649,0,4.086,3.041,262,22.33,21.9,0.394247,0.145,39.14,48.65,30.46,32.96
"2018-07-22 05:00:00",350443,0.18,189.6,17.83,100,2.252822,0,868.1649,0,3.823,3.044,314,22.35,21.9,0.9439182,0.684,39.14,48.65,30.46,32.96
"2018-07-22 05:10:00",350444,0.184,188.9,17.9,100,7.58804,0,868.2912,0,-23.19,3.302,186,22.29,21.92,1.884046,0.249,39.14,48.65,30.46,32.96
"2018-07-22 05:20:00",350445,0.446,15.77,19.61,81,14.07916,0,868.4176,0,-2.353,3.093,194,22.25,21.96,4.969787,0.359,39.14,48.65,30.46,32.96
"2018-07-22 05:30:00",350446,0.269,35.06,20.03,78.5,17.07505,0,868.4176,0,5.563,3.015,236,22.25,21.95,4.852271,0.284,39.14,48.65,30.46,32.96
"2018-07-22 05:40:00",350447,0.023,308.2,20.1,79.12,20.63711,0,868.4176,0,-31.82,3.376,197,22.23,21.97,4.571748,0.223,39.14,48.65,30.46,32.96
"2018-07-22 05:50:00",350448,0.457,167.8,19.53,84,26.59327,0,868.4176,0,6.4,3.015,237,22.13,21.97,4.071322,0.158,39.14,48.65,30.46,32.96
"2018-07-22 06:00:00",350449,0.323,165.4,18.4,97.8,54.21262,0,868.4512,0,-26.91,3.338,193,22.15,21.92,7.551265,0.138,39.14,48.65,30.46,32.96
"2018-07-22 06:10:00",350450,0.609,186.8,18.95,93.7,35.78156,0,868.4492,0,5.787,3.018,248,22.08,21.88,4.984925,0.139,39.19,48.65,30.48,32.96
"2018-07-22 06:20:00",350451,0.683,180.4,19.4,92.9,45.22544,0,868.4302,0,12.55,2.95,368,22.06,21.83,5.849253,0.126,39.19,48.65,30.48,32.96
"2018-07-22 06:30:00",350452,0.384,181.4,20.15,89.7,103.4175,0,868.4281,0,15.69,2.916,394,22.07,21.82,20.87613,0.242,39.19,48.65,30.48,32.96
"2018-07-22 06:40:00",350453,0.179,156.9,20.39,88.8,48.19776,0,868.4176,0,14.54,2.926,364,22.07,21.81,22.32421,0.464,39.19,48.65,30.48,32.96
"2018-07-22 06:50:00",350454,0.235,176.1,20.85,86.7,86.41911,0,868.4176,0,8.56,2.983,273,22.06,21.8,23.92347,0.372,39.19,48.65,30.48,32.96
"2018-07-22 07:00:00",350455,0.503,332.9,20.66,85.4,145.8037,0,868.4176,0,12.83,2.943,361,21.99,21.8,24.16575,0.256,39.19,48.65,30.48,32.96
"2018-07-22 07:10:00",350456,0.276,311.6,21.06,81.5,123.4909,0,868.4155,0,9.18,2.973,277,21.99,21.78,27.22383,0.283,39.19,48.65,30.48,32.96
"2018-07-22 07:20:00",350457,0.312,7.855,21.38,80.9,71.61024,0,868.3586,0,7.853,2.988,249,21.92,21.77,26.57438,0.417,39.19,48.7,30.48,32.97
"2018-07-22 07:30:00",350458,0.138,316.1,21.5,80.1,85.87381,0,868.3207,0,-26.88,3.319,296,21.9,21.77,25.81181,0.345,39.19,48.7,30.48,32.97
"2018-07-22 07:40:00",350459,0.28,341.9,21.76,80.4,60.98961,0,868.2723,0,9,2.975,228,21.91,21.77,27.15329,0.448,39.19,48.65,30.48,32.96
"2018-07-22 07:50:00",350460,0.779,9.86,21.19,84.7,61.75534,0,868.1649,0,8.61,2.981,238,21.92,21.75,31.00753,0.503,39.19,48.65,30.48,32.96
"2018-07-22 08:00:00",350461,0.625,12,21.16,86.4,344.09,0,868.1669,0,8.44,2.982,257,21.82,21.7,41.57002,0.224,39.19,48.65,30.48,32.96
"2018-07-22 08:10:00",350462,0.43,342.3,21.42,85.8,635.5064,0,868.2365,0,11.57,2.949,278,21.76,21.64,67.84698,0.107,39.19,48.7,30.48,32.97
"2018-07-22 08:20:00",350463,0.6,15.75,21.88,83.5,669.5858,0,868.3228,0,-29.53,3.344,229,21.8,21.62,90.22799,0.135,39.19,48.65,30.48,32.96
"2018-07-22 08:30:00",350464,0.483,1.502,22.24,81.9,705.588,0,868.169,0,8.82,2.972,235,21.81,21.63,101.531,0.144,39.19,48.65,30.48,32.96
"2018-07-22 08:40:00",350465,0.699,7.365,22.57,80.1,739.5092,0,868.0048,0,-19.9,3.246,209,21.79,21.56,109.9152,0.149,39.24,48.65,30.49,32.96
"2018-07-22 08:50:00",350466,0.87,14.62,22.96,76.82,778.5128,0,867.9121,0,7.542,2.982,224,21.77,21.56,116.1058,0.149,39.19,48.65,30.48,32.96
"2018-07-22 09:00:00",350467,0.893,16.29,22.91,77.22,814.4561,0,867.9121,0,9.71,2.961,304,21.76,21.59,121.5139,0.149,39.19,48.65,30.48,32.96
"2018-07-22 09:10:00",350468,0.91,11.71,23.24,74.86,866.6329,0,867.9121,0,4.921,3.005,247,21.68,21.57,129.0309,0.149,39.14,48.65,30.46,32.96
"2018-07-22 09:20:00",350469,0.656,21.8,23.73,71.29,882.5471,0,867.9121,0,6.79,2.984,225,21.68,21.51,131.721,0.149,39.19,48.65,30.48,32.96
"2018-07-22 09:30:00",350470,0.397,18.94,24.05,71.75,632.4619,0,867.9121,0,6.223,2.989,250,21.68,21.5,89.80464,0.127,39.19,48.65,30.48,32.96
"2018-07-22 09:40:00",350471,0.299,23.15,24.55,69.32,906.0294,0,867.9079,0,6.17,2.986,204,21.68,21.5,133.7671,0.146,39.19,48.65,30.48,32.96
"2018-07-22 09:50:00",350472,0.473,4.772,24.54,67.58,803.3467,0,867.9079,0,7.065,2.977,250,21.7,21.5,117.8662,0.14,39.19,48.65,30.48,32.96
"2018-07-22 10:00:00",350473,0.543,319.9,24.88,63.45,967.3812,0,867.7246,0,10.75,2.94,232,21.74,21.5,142.9151,0.148,39.14,48.65,30.46,32.96
"2018-07-22 10:10:00",350474,0.35,268,25.13,57.95,935.2903,0,867.6025,0,14.02,2.907,301,21.73,21.49,137.227,0.146,39.14,48.65,30.46,32.96
"2018-07-22 10:20:00",350475,0.217,283.9,25.6,56.7,988.8798,0,867.4677,0,-27.9,3.305,205,21.68,21.48,144.7189,0.146,39.19,48.65,30.48,32.96
"2018-07-22 10:30:00",350476,0.342,46.87,25.99,57.51,974.3339,0,867.4023,0,-27.72,3.304,203,21.67,21.48,145.3593,0.149,39.14,48.65,30.46,32.96
"2018-07-22 10:40:00",350477,0.434,1.568,26.02,55.89,979.7616,0,867.3034,0,11.99,2.926,241,21.68,21.38,147.9059,0.151,39.09,48.59,30.45,32.95
"2018-07-22 10:50:00",350478,0.505,73.01,25.84,58.31,908.5958,0,867.3139,0,23.11,2.818,310,21.78,21.33,139.0194,0.149,39.04,48.59,30.44,32.95
"2018-07-22 11:00:00",350479,0.405,358.4,25.99,58.09,746.4558,0,867.1686,0,-27.84,3.309,233,21.76,21.35,109.2905,0.135,39.04,48.59,30.44,32.95
"2018-07-22 11:10:00",350480,0.399,27.68,25.45,61.63,813.8091,0,867.1539,0,-20.48,3.236,219,21.83,21.41,125.4567,0.15,39.04,48.54,30.44,32.93
"2018-07-22 11:20:00",350481,0.496,322.6,26,60.05,1065.245,0,867.1539,0,11.37,2.927,256,21.9,21.41,166.8764,0.157,38.99,48.54,30.42,32.93
"2018-07-22 11:30:00",350482,0.467,21.37,26.59,58.59,1036.963,0,867.1749,0,8.1,2.958,214,21.94,21.38,163.5757,0.156,38.99,48.54,30.42,32.93
"2018-07-22 11:40:00",350483,0.452,327.5,26.81,57.93,1142.405,0,867.1539,0,7.337,2.964,219,22.01,21.38,183.8081,0.161,38.94,48.48,30.41,32.92
"2018-07-22 11:50:00",350484,0.502,66.42,26.89,58.95,863.3936,0,867.1328,0,13.71,2.904,277,22.08,21.37,132.312,0.15,38.89,48.48,30.4,32.92
"2018-07-22 12:00:00",350485,0.222,342.2,26.76,59.1,877.1823,0,866.918,0,-26.94,3.291,196,22.14,21.35,136.8861,0.156,38.89,48.48,30.4,32.92
"2018-07-22 12:10:00",350486,0.361,347.2,26.62,58.56,554.429,0,866.9011,0,-30.89,3.334,310,22.2,21.31,78.56961,0.131,38.84,48.48,30.38,32.92
"2018-07-22 12:20:00",350487,0.433,260.4,25.88,59.2,626.9287,0,866.9011,0,-23.01,3.259,188,22.3,21.25,96.23999,0.149,38.79,48.48,30.37,32.92
"2018-07-22 12:30:00",350488,0.246,265.9,26.17,57.61,707.4373,0,866.9011,0,18.02,2.865,373,22.39,21.24,109.7498,0.155,38.79,48.43,30.37,32.9
"2018-07-22 12:40:00",350489,0.347,2.565,26.27,57.94,676.663,0,866.7705,0,12.63,2.916,256,22.47,21.24,103.2627,0.153,38.75,48.43,30.35,32.9
"2018-07-22 12:50:00",350490,0.184,280.4,26.31,59.23,642.2629,0,866.6484,0,-33.58,3.359,224,22.54,21.25,96.38548,0.15,38.75,48.38,30.35,32.89
"2018-07-22 13:00:00",350491,0.298,261.9,25.95,58.99,549.7534,0,866.6484,0,14.53,2.901,284,22.66,21.26,80.60511,0.146,38.7,48.38,30.34,32.89
"2018-07-22 13:10:00",350492,0.402,238.1,26.26,58.21,923.3965,0,866.6484,0,16.27,2.881,434,22.71,21.26,147.9241,0.16,38.65,48.38,30.33,32.89
"2018-07-22 13:20:00",350493,0.391,299.1,26.87,56.42,1046.457,0,866.5957,0,-27.26,3.293,252,22.79,21.29,170.2622,0.163,38.6,48.32,30.31,32.88
"2018-07-22 13:30:00",350494,0.529,331.8,27.3,53.18,1039.821,0,866.4124,0,-22.29,3.244,196,22.81,21.3,169.0765,0.163,38.6,48.27,30.31,32.86
"2018-07-22 13:40:00",350495,0.587,1.492,27.48,53.15,980.0335,0,866.3914,0,-31.6,3.332,238,22.86,21.29,157.2277,0.16,38.55,48.27,30.3,32.86
"2018-07-22 13:50:00",350496,0.46,262.2,27.62,50.73,976.8178,0,866.3156,0,-24.39,3.26,196,22.93,21.29,157.3684,0.161,38.45,48.27,30.27,32.86
"2018-07-22 14:00:00",350497,0.612,349.1,27.58,53.05,667.4106,0,866.1428,0,15.67,2.884,279,23,21.29,100.2377,0.133,38.45,48.27,30.27,32.86
"2018-07-22 14:10:00",350498,0.4,260.5,26.71,56.58,595.6403,0,866.1955,0,16.28,2.878,292,23.05,21.26,89.871,0.142,38.45,48.21,30.27,32.85
"2018-07-22 14:20:00",350499,0.417,7.712,26.92,53.91,477.0405,0,866.2924,0,15.04,2.892,327,23.16,21.29,67.90947,0.13,38.4,48.21,30.26,32.85
"2018-07-22 14:30:00",350500,0.373,212.8,26.48,56.14,376.5769,0,866.1871,0,-28.9,3.314,207,23.18,21.29,50.8952,0.126,38.35,48.16,30.25,32.84
"2018-07-22 14:40:00",350501,0.375,233.7,26.71,55.26,791.0807,0,866.1576,0,318,0,0,23.28,21.31,115.2919,0.145,38.3,48.16,30.23,32.84
"2018-07-22 14:50:00",350502,0.625,289.8,27.06,53.54,730.525,0,866.1597,0,9.68,2.94,318,23.31,21.33,94.29456,0.129,38.26,48.11,30.22,32.82
"2018-07-22 15:00:00",350503,0.723,299.2,26.88,52.22,567.808,0,866.145,0,18.29,2.861,252,23.41,21.35,65.36075,0.115,38.21,48.11,30.21,32.82
"2018-07-22 15:10:00",350504,0.351,236.1,26.45,52.36,428.1444,0,866.145,0,14.01,2.904,267,23.42,21.37,41.59843,0.1,38.21,48.11,30.21,32.82
"2018-07-22 15:20:00",350505,0.629,176,26.06,58.14,363.2897,0,866.1786,0,-21.85,3.247,212,23.49,21.37,38.44208,0.118,38.16,48.05,30.19,32.81
"2018-07-22 15:30:00",350506,0.559,62.27,26.24,57.49,194.4458,0,866.3597,0,8.21,2.96,218,23.54,21.36,32.38539,0.167,38.16,48.11,30.19,32.82
"2018-07-22 15:40:00",350507,0.689,301.6,25.89,56.68,160.4623,0,866.3935,0,15.23,2.894,278,23.55,21.37,27.76568,0.173,38.06,48.05,30.16,32.81
"2018-07-22 15:50:00",350508,0.524,134.2,25.66,57.2,129.297,0,866.3956,0,10.74,2.939,253,23.63,21.42,19.84103,0.153,38.06,48.05,30.16,32.81
"2018-07-22 16:00:00",350509,0.845,253.4,25.45,54.32,111.6822,0,866.3956,0,19.31,2.857,256,23.66,21.47,19.7658,0.177,38.06,48,30.16,32.8
"2018-07-22 16:10:00",350510,0.585,201.7,25.24,54.25,86.55424,0,866.3956,0,18.47,2.865,280,23.67,21.52,15.05128,0.174,38.06,48,30.16,32.8
"2018-07-22 16:20:00",350511,0.261,71.35,25.7,52.25,69.20729,0,866.3956,0,18.27,2.865,274,23.75,21.49,12.8341,0.185,38.01,47.95,30.15,32.78
"2018-07-22 16:30:00",350512,0.379,202.2,25.53,51.01,62.82106,0,866.3809,0,16.14,2.886,232,23.75,21.5,10.85586,0.173,37.96,47.95,30.14,32.78
"2018-07-22 16:40:00",350513,0.337,166.4,25.44,52.79,59.57521,0,866.3956,0,3.603,3.008,284,23.81,21.54,9.684823,0.163,37.96,47.95,30.14,32.78
"2018-07-22 16:50:00",350514,0.303,200.6,25.04,54.55,54.16599,0,866.3956,0,-29.42,3.324,211,23.85,21.58,7.28545,0.136,37.96,47.95,30.14,32.78
"2018-07-22 17:00:00",350515,0.207,188.1,24.85,56.45,44.34135,0,866.3956,0,14.78,2.903,232,23.85,21.61,5.924614,0.134,37.96,47.89,30.14,32.77
"2018-07-22 17:10:00",350516,0.485,65.21,24.78,59.07,43.18578,0,866.3956,0,-27.81,3.31,195,23.86,21.62,5.693423,0.132,37.96,47.95,30.14,32.78
"2018-07-22 17:20:00",350517,0.329,94.9,24.74,60.67,40.88157,0,866.3977,0,15.88,2.894,268,23.88,21.62,4.969374,0.121,37.96,47.89,30.14,32.77
"2018-07-22 17:30:00",350518,0.181,162.7,24.32,63.33,34.55933,0,866.3956,0,18.68,2.869,336,23.83,21.61,3.866249,0.112,37.96,47.95,30.14,32.78
"2018-07-22 17:40:00",350519,0.182,107.2,24.04,66.34,33.39223,0,866.3977,0,18.06,2.876,288,23.84,21.61,3.896627,0.117,37.96,47.89,30.14,32.77
"2018-07-22 17:50:00",350520,0.215,45.93,23.86,68.6,31.72609,0,866.4798,0,21.15,2.848,300,23.84,21.61,3.680654,0.116,37.91,47.89,30.12,32.77
"2018-07-22 18:00:00",350521,0.488,49.56,23.47,71.85,28.1095,0,866.6484,0,23.11,2.83,390,23.85,21.61,3.331952,0.119,37.96,47.89,30.14,32.77
"2018-07-22 18:10:00",350522,0.117,23.54,23.4,73.73,26.57238,0,866.6399,0,14.29,2.916,233,23.81,21.64,3.532862,0.133,37.96,47.89,30.14,32.77
"2018-07-22 18:20:00",350523,0.209,160.7,22.96,76.85,25.24353,0,866.6484,0,-29.17,3.335,196,23.8,21.74,3.297839,0.131,37.96,47.89,30.14,32.77
"2018-07-22 18:30:00",350524,0.101,171.5,22.72,79.4,21.32008,0,866.6484,0,12.55,2.935,323,23.83,21.77,3.04009,0.143,37.96,47.89,30.14,32.77
"2018-07-22 18:40:00",350525,0.006,139.7,22.63,82,15.87152,0,866.7368,0,14.18,2.92,222,23.8,21.76,2.350251,0.148,37.96,47.89,30.14,32.77
"2018-07-22 18:50:00",350526,0.259,23.96,22.52,83.9,10.05296,0,866.918,0,14.53,2.917,214,23.7,21.76,1.834726,0.185,37.96,47.89,30.14,32.77
"2018-07-22 19:00:00",350527,0.14,25.41,22.35,85.6,3.196379,0,866.9516,0,13.09,2.933,228,23.73,21.75,0.633063,0.155,37.96,47.89,30.14,32.77
"2018-07-22 19:10:00",350528,0.014,208.8,21.8,89,0,0,866.9474,0,12.36,2.942,260,23.74,21.74,0.00758166,0,37.96,47.89,30.14,32.77
"2018-07-22 19:20:00",350529,0.057,36.66,21.54,91.8,0,0,866.9158,0,14.11,2.926,238,23.7,21.73,0.2198683,0,37.96,47.84,30.14,32.76
"2018-07-22 19:30:00",350530,0.069,187.1,21.24,94.5,0,0,866.9601,0,14.86,2.921,221,23.71,21.78,0,0,37.96,47.89,30.14,32.77
"2018-07-22 19:40:00",350531,0.073,186.1,20.85,98,0,0,867.1033,0,15.76,2.914,222,23.71,21.85,0,0,37.96,47.84,30.14,32.76
"2018-07-22 19:50:00",350532,0.005,182.6,20.6,100,0,0,867.1539,0,15.62,2.916,229,23.59,21.89,0,0,38.01,47.84,30.15,32.76
"2018-07-22 20:00:00",350533,0.011,186.1,20.41,100,0,0,867.1539,0,15.34,2.92,242,23.61,21.89,0.01516307,0,38.01,47.84,30.15,32.76
"2018-07-22 20:10:00",350534,0.065,183.3,20.27,100,0,0,867.2676,0,14.85,2.925,285,23.59,21.89,0.2274477,0,37.96,47.84,30.14,32.76
"2018-07-22 20:20:00",350535,0.054,25.91,20.38,100,0,0,867.4023,0,13.32,2.938,255,23.52,21.9,0.5231337,0,38.01,47.84,30.15,32.76
"2018-07-22 20:30:00",350536,0.88,39.05,20.87,100,0,0,867.3729,0,13.43,2.935,313,23.51,21.9,1.163778,0,38.01,47.84,30.15,32.76
"2018-07-22 20:40:00",350537,0.833,46.93,20.94,100,0,0,867.236,0,11.17,2.957,249,23.4,21.89,0.7164559,0,38.01,47.84,30.15,32.76
"2018-07-22 20:50:00",350538,0.586,30.12,21.05,97.2,0,0,867.1854,0,19.4,2.877,421,23.41,21.92,0.6823383,0,38.01,47.84,30.15,32.76
"2018-07-22 21:00:00",350539,0.644,31.41,21.12,95.2,0,0,867.3687,0,-25.25,3.307,180,23.41,21.95,0.6671818,0,38.01,47.84,30.15,32.76
"2018-07-22 21:10:00",350540,0.619,41.56,21.01,95.8,0,0,867.3434,0,8.59,2.982,228,23.37,21.98,0.2691486,0,38.01,47.84,30.15,32.76
"2018-07-22 21:20:00",350541,0.611,26.52,20.9,93.9,0,0,867.1559,0,8.11,2.988,216,23.35,21.98,0.1971233,0,38.01,47.84,30.15,32.76
"2018-07-22 21:30:00",350542,0.405,10.51,20.8,97.1,0,0,867.1286,0,7.972,2.988,210,23.26,21.98,0.2084933,0,38.01,47.84,30.15,32.76
"2018-07-22 21:40:00",350543,0.373,37.24,21,94.2,0,0,867.0295,0,7.637,2.993,224,23.28,21.98,0.4624778,0,38.01,47.84,30.15,32.76
"2018-07-22 21:50:00",350544,0.357,65.44,20.43,99.9,0,0,866.9053,0,8.15,2.99,208,23.21,21.98,0,0,38.01,47.84,30.15,32.76
"2018-07-22 22:00:00",350545,0.022,63.22,20.03,100,0,0,867.0253,0,8.89,2.984,224,23.16,21.98,0,0,38.06,47.84,30.16,32.76
"2018-07-22 22:10:00",350546,0,0,19.8,100,0,0,867.0928,0,7.808,2.996,219,23.18,21.98,0,0,38.06,47.84,30.16,32.76
"2018-07-22 22:20:00",350547,0.017,162.1,19.47,100,0,0,866.9811,0,7.993,2.996,257,23.07,21.99,0,0,38.06,47.84,30.16,32.76
"2018-07-22 22:30:00",350548,0.236,168.1,19.15,100,0,0,867.0422,0,8.67,2.991,240,23.1,21.99,0,0,38.06,47.84,30.16,32.76
"2018-07-22 22:40:00",350549,0.287,170,18.82,100,0,0,867.1496,0,8.21,2.997,315,23.1,21.99,0,0,38.06,47.84,30.16,32.76
"2018-07-22 22:50:00",350550,0.181,170.4,18.73,100,0,0,867.1539,0,5.938,3.019,315,23.04,21.99,0.1743785,0,38.06,47.84,30.16,32.76
"2018-07-22 23:00:00",350551,0.409,171.9,18.65,100,0,0,867.1496,0,7.501,3.005,272,23.03,21.99,0.2274502,0,38.06,47.84,30.16,32.76
"2018-07-22 23:10:00",350552,0.194,200.2,18.71,100,0,0,866.9706,0,7.855,2.996,278,22.96,21.99,0.6330697,0,38.06,47.84,30.16,32.76
"2018-07-22 23:20:00",350553,0.283,52.79,20.24,88.6,0,0,866.9011,0,3.434,3.036,247,22.94,21.99,2.350319,0,38.06,47.84,30.16,32.76
"2018-07-22 23:30:00",350554,0.524,31.79,20.16,84.6,0,0,866.9011,0,8.3,2.989,256,22.93,21.99,1.520126,0,38.06,47.84,30.16,32.76
"2018-07-22 23:40:00",350555,0.45,61.84,20.08,81.2,0,0,866.9011,0,7.198,2.999,284,22.85,21.99,0.8643106,0,38.11,47.84,30.18,32.76
"2018-07-22 23:50:00",350556,0.33,36.91,20.5,75.72,0,0,866.8568,0,7.255,2.998,249,22.84,21.99,0.9628724,0,38.11,47.84,30.18,32.76
